This is the latest recevied weather packets stored in our database for station/object BMCB-18. If no packets are shown the sender has not sent any weather packets the latest 10 day(s).
| Time | Temp. | Humidity | Pressure | Rain* | Wind** | Luminosity | Snow |
|---|---|---|---|---|---|---|---|
| 1778115645 | 8.33° C | 93% | 1015 hPa | 0 mm | - | 0 W/m² | - |
| 1778111446 | 7.78° C | 96% | 1014.8 hPa | 0 mm | - | 0 W/m² | - |
| 1778102450 | 8.33° C | 94% | 1013.7 hPa | 0 mm | - | 0 W/m² | - |
| 1778098253 | 8.89° C | 89% | 1013.2 hPa | 0 mm | - | 0 W/m² | - |
| 1778097651 | 8.89° C | 89% | 1013.1 hPa | 0 mm | - | 0 W/m² | - |
| 1778093450 | 9.44° C | 86% | 1012.5 hPa | 0 mm | - | 8 W/m² | - |
| 1778086843 | 11.67° C | 78% | 1011.3 hPa | 0 mm | - | 112 W/m² | - |
| 1778083845 | 11.67° C | 83% | 1011.1 hPa | 0 mm | - | 106 W/m² | - |
| 1778080250 | 11.67° C | 86% | 1010.8 hPa | 0 mm | - | 266 W/m² | - |
| 1778073645 | 11.11° C | 87% | 1010.9 hPa | 0 mm | - | 306 W/m² | - |
| 1778066449 | 10° C | 96% | 1010.5 hPa | 0.25 mm | - | 468 W/m² | - |
| 1778065248 | 10° C | 98% | 1010.6 hPa | 0 mm | - | 416 W/m² | - |
| 1778063446 | 9.44° C | 99% | 1010.5 hPa | 0.25 mm | - | 282 W/m² | - |
| 1778059843 | 8.89° C | 10% | 1010 hPa | 0.51 mm | - | - | - |
| 1778055644 | 8.33° C | 10% | 1009.5 hPa | 0.51 mm | - | - | - |
| 1778053247 | 8.33° C | 10% | 1009.3 hPa | 0.51 mm | - | - | - |
| 1778050843 | 7.78° C | 10% | 1009 hPa | 0.76 mm | - | - | - |
| 1778049643 | 7.78° C | 10% | 1009 hPa | 0.51 mm | - | - | - |
| 1778047246 | 7.78° C | 10% | 1008.9 hPa | 0.76 mm | - | - | - |
| 1778046644 | 7.78° C | 10% | 1008.9 hPa | 1.52 mm | - | - | - |
| 1778043045 | 7.78° C | 10% | 1008.9 hPa | 1.02 mm | - | - | - |
| 1778038244 | 7.78° C | 10% | 1008.8 hPa | 1.52 mm | - | - | - |
| 1778034648 | 8.33° C | 10% | 1009 hPa | 1.52 mm | - | - | - |
| 1778023247 | 8.89° C | 10% | 1009.8 hPa | 2.03 mm | - | - | - |
| 1778020249 | 8.89° C | 10% | 1010.1 hPa | 1.52 mm | - | - | - |
* Rain latest hour (hover to see other rain measurements)
** Current wind speed in m/s (hover to see current wind gust speed)